Flag for U.S.A. Weather past 2 weeks in Santa Barbara, California, U.S.A.

Now
72 °F

Sunny.


Feels Like: 76 °F
Forecast: 63 / 74 °F
Wind: 13 mph from West

Location: Santa Barbara Municipal Airport

Current Time: Jul 2, 2015 at 4:48:03 PM

Latest Report: Jul 2, 2015 at 3:53 PM


Visibility: 10 mi

Pressure: 29.96 "Hg

Humidity: 64%

Dew point: 59 °F

Location of Santa BarbaraLocation

Historic Weather in Santa Barbara — Graph

°F

Santa Barbara temperature yesterday

Maximum temperature yesterday: 74 °F (at 11:53 AM)
Minimum temperature yesterday: 61 °F (at 1:53 AM)
Average temperature yesterday: 66 °F

Past Weeks' High & Low Weather Summary

 TemperatureHumidityPressure
High79 °F (Jun 28, 12:53 PM)97% (Jun 19, 5:53 AM)30.04 "Hg (Jun 19, 5:53 AM)
Low54 °F (Jun 22, 5:53 AM)47% (Jun 23, 2:53 PM)29.76 "Hg (Jun 19, 8:53 PM)
Average66 °F77%29.90 "Hg
* Reported Jun 17 2:53 PM — Jul 2 2:53 PM, Santa Barbara, Weather by CustomWeather, © 2015

Note: Actual official high and low records may vary slightly from our data, if they occured in-between our weather recording intervals... More about our weather records

Advertising

Santa Barbara weather history for previous 24 hours

 ConditionsComfort  
Time TempWeatherWind HumidityBarometerVisibility
2:53 PM
Thu, Jul 2
74 °FSunny.9 mph62%29.97 "Hg10 mi
1:53 PM76 °FSunny.9 mph58%29.97 "Hg10 mi
12:53 PM74 °FSunny.8 mph62%29.98 "Hg10 mi
11:53 AM71 °FSunny.10 mph71%29.99 "Hg10 mi
10:53 AM70 °FScattered clouds.3 mph76%29.99 "Hg10 mi
9:53 AM67 °FPartly sunny.5 mph81%29.98 "Hg10 mi
8:53 AM68 °FOvercast.No wind76%29.98 "Hg10 mi
7:58 AM66 °FLow clouds.No wind81%29.99 "Hg10 mi
6:55 AM64 °FLow clouds.3 mph87%29.98 "Hg10 mi
5:53 AM63 °FClear.5 mph90%29.96 "Hg10 mi
4:53 AM63 °FPassing clouds.5 mph90%29.95 "Hg10 mi
3:53 AM63 °FClear.6 mph90%29.94 "Hg10 mi
2:53 AM63 °FPassing clouds.5 mph87%29.94 "Hg10 mi
1:53 AM63 °FClear.6 mph87%29.93 "Hg10 mi
12:53 AM63 °FClear.3 mph87%29.94 "Hg10 mi
11:53 PM
Wed, Jul 1
63 °FClear.No wind87%29.96 "Hg10 mi
10:53 PM63 °FClear.No wind87%29.95 "Hg10 mi
9:53 PM64 °FClear.3 mph84%29.93 "Hg10 mi
8:53 PM64 °FSunny.3 mph84%29.90 "Hg10 mi
7:53 PM64 °FSunny.9 mph84%29.89 "Hg10 mi
6:53 PM66 °FSunny.9 mph81%29.89 "Hg10 mi
5:53 PM69 °FScattered clouds.8 mph76%29.88 "Hg10 mi
4:53 PM68 °FMore clouds than sun.8 mph76%29.88 "Hg10 mi
Weather by CustomWeather, © 2015

See weather overviewHow to use our weather pages